Location: Vienna
(38.9012°N, 77.2653°W)
Time: 05:00:09
(UTC-05:00)

Envisat - Visible Passes

Search period start: 23 January 2018 00:00
Search period end: 02 February 2018 00:00
Orbit: 764 x 766 km, 98.2° (Epoch: 22 January)

Date Brightness Start Highest point End Pass type
(mag) Time Alt. Az. Time Alt. Az. Time Alt. Az.
23 Jan 4.6 18:36:31 16° NE 18:36:31 16° NE 18:38:20 10° NNE visible
23 Jan 5.0 20:16:42 21° NNW 20:16:42 21° NNW 20:18:26 10° NNW visible
24 Jan 4.2 19:39:17 30° N 19:39:17 30° N 19:41:49 10° N visible
25 Jan 4.1 19:01:50 26° NE 19:01:50 26° NE 19:04:40 10° N visible
25 Jan 5.4 20:42:02 17° NW 20:42:02 17° NW 20:43:33 10° NW visible
26 Jan 4.6 18:24:23 15° NE 18:24:23 15° NE 18:26:39 10° NNE visible
26 Jan 4.3 20:04:34 33° NNW 20:04:34 33° NNW 20:07:24 10° NNW visible
27 Jan 3.6 19:27:07 40° NNE 19:27:07 40° NNE 19:30:38 10° N visible
27 Jan 5.9 21:07:18 12° WNW 21:07:18 12° WNW 21:08:03 10° NW visible
28 Jan 4.0 18:49:40 25° ENE 18:49:40 25° ENE 18:53:18 10° NNE visible
28 Jan 4.8 20:29:51 27° NW 20:29:51 27° NW 20:32:40 10° NNW visible
29 Jan 4.7 18:12:11 11° ENE 18:12:55 12° ENE 18:14:37 10° NE visible
29 Jan 3.4 19:52:23 54° NNW 19:52:23 54° NNW 19:56:18 10° NNW visible
30 Jan 3.3 19:14:54 43° ENE 19:14:54 43° ENE 19:19:23 10° N visible
30 Jan 5.4 20:55:05 18° WNW 20:55:05 18° WNW 20:57:30 10° NW visible
31 Jan 4.2 18:37:24 20° ENE 18:38:10 20° ENE 18:41:49 10° NNE visible
31 Jan 4.0 20:17:36 42° WNW 20:17:36 42° WNW 20:21:43 10° NNW visible
01 Feb 2.8 19:40:05 78° ENE 19:40:05 78° ENE 19:45:10 10° N visible
01 Feb 6.0 21:20:17 11° W 21:20:17 11° W 21:20:54 10° WNW visible
